User: anonymous   Login
Location: Fontevrault
(47.1823°N, 0.0493°E)
Time: 22:10:16
(UTC+00:00)
Language:

FALCON 9 DEB - Orbit

View from above orbital plane
View from above orbital plane
View from above satellite
View from above satellite

Ground track
Ground track

The orbit data is extracted from the following two-line orbital elements,

1 46087U 20055BN  21266.19245971  .00030277  00000-0  25228-3 0  9993
2 46087  53.0047  72.7884 0009777 188.5523 171.5328 15.69802744 69035
Epoch (UTC): 23 September 2021 04:37:08
Eccentricity: 0.0009777
inclination: 53.0047°
perigee height: 353 km
apogee height: 366 km
right ascension of ascending node: 72.7884°
argument of perigee: 188.5523°
revolutions per day: 15.69802744
mean anomaly at epoch: 171.5328°
orbit number at epoch: 6903

The dashed part of the orbit path shows where the satellite is in the earth's shadow,  

DLR